START_TIME,STEP,MOV.,H8,t_acc.,H43,t_acc.,M25,t_acc.,H9,t_acc.
1979-02-28 21:00:18.950 ,1,1,0.,12.0,0.,12.0,0.,12.0,0.,12.0
1979-02-28 21:00:30.950 ,1,1,0.,12.0,0.,12.0,0.,12.0,0.,12.0
1979-02-28 21:00:42.950 ,2,1,0.,12.0,0.,12.0,0.,12.0,0.,12.0
1979-02-28 21:00:54.950 ,2,1,0.,12.0,0.,12.0,0.,12.0,0.,12.0
1979-02-28 21:01:06.940 ,3,1,0.,12.0,0.,12.0,0.,12.0,0.,12.0
1979-02-28 21:01:18.950 ,3,1,0.,12.0,0.,12.0,0.,12.0,0.,12.0
1979-02-28 21:01:30.940 ,4,1,0.,12.0,0.,12.0,0.,12.0,0.,12.0
1979-02-28 21:01:42.950 ,4,1,0.,12.0,0.,12.0,0.,12.0,0.,12.0
1979-02-28 21:01:54.950 ,5,1,0.,12.0,0.,12.0,0.,12.0,0.,12.0
1979-02-28 21:02:06.950 ,5,1,0.,12.0,0.,12.0,0.,12.0,0.,12.0
1979-02-28 21:02:18.950 ,6,1,0.,12.0,0.,12.0,0.,12.0,0.,12.0
1979-02-28 21:02:30.950 ,6,1,0.,12.0,0.,12.0,0.,12.0,0.,12.0
1979-02-28 21:02:42.950 ,7,1,0.,12.0,0.,12.0,0.,12.0,0.,12.0
1979-02-28 21:02:54.950 ,7,1,0.,12.0,0.,12.0,0.,12.0,0.,12.0
1979-02-28 21:03:06.950 ,7,1,0.,12.0,0.,12.0,0.,12.0,0.,12.0
1979-02-28 21:03:18.950 ,7,1,0.,12.0,0.,12.0,0.,12.0,0.,12.0
1979-02-28 21:03:30.950 ,6,1,0.,12.0,0.,12.0,0.,12.0,0.,12.0
1979-02-28 21:03:42.950 ,6,1,0.,12.0,0.,12.0,0.,12.0,0.,12.0
1979-02-28 21:03:54.950 ,5,1,0.,12.0,0.,12.0,0.,12.0,0.,12.0
1979-02-28 21:04:06.950 ,5,1,0.,12.0,0.,12.0,0.,12.0,0.,12.0
1979-02-28 21:04:18.950 ,4,1,0.,12.0,0.,12.0,0.,12.0,0.,12.0
1979-02-28 21:04:30.950 ,4,1,0.,12.0,0.,12.0,0.,12.0,0.,12.0
1979-02-28 21:04:42.950 ,3,1,0.,12.0,0.,12.0,0.,12.0,0.,12.0
1979-02-28 21:04:54.950 ,3,1,0.,12.0,0.,12.0,0.,12.0,0.,12.0
1979-02-28 21:05:06.950 ,2,1,0.,12.0,0.,12.0,0.,12.0,0.,12.0
1979-02-28 21:05:18.950 ,2,1,0.,12.0,0.,12.0,0.,12.0,0.,12.0
1979-02-28 21:05:30.950 ,1,1,0.,12.0,0.,12.0,0.,12.0,0.,12.0
1979-02-28 21:05:42.950 ,1,1,0.,12.0,0.,12.0,0.,12.0,0.,12.0
1979-02-28 21:05:54.950 ,0,1,0.,12.0,0.,12.0,0.,12.0,0.,12.0
1979-02-28 21:06:06.950 ,0,1,0.,12.0,0.,12.0,0.,12.0,0.,12.0
1979-02-28 21:06:18.950 ,0,1,0.,12.0,0.,12.0,0.,12.0,0.,12.0
1979-02-28 21:06:30.950 ,0,1,0.,12.0,0.,12.0,0.,12.0,0.,12.0
1979-02-28 21:06:42.950 ,1,1,0.,12.0,0.,12.0,0.,12.0,0.,12.0
1979-02-28 21:06:54.950 ,1,1,0.,12.0,0.,12.0,0.,12.0,0.,12.0
1979-02-28 21:07:06.950 ,2,1,0.,12.0,0.,12.0,0.,12.0,0.,12.0
1979-02-28 21:07:18.950 ,2,1,0.,12.0,0.,12.0,0.,12.0,0.,12.0
1979-02-28 21:07:30.950 ,3,1,0.,12.0,0.,12.0,0.,12.0,0.,12.0
1979-02-28 21:07:42.950 ,3,1,0.,12.0,0.,12.0,0.,12.0,0.,12.0
1979-02-28 21:07:54.950 ,4,1,0.,12.0,0.,12.0,0.,12.0,0.,12.0
1979-02-28 21:08:06.950 ,4,1,0.,12.0,0.,12.0,0.,12.0,0.,12.0
1979-02-28 21:08:18.950 ,5,1,0.,12.0,0.,12.0,0.,12.0,0.,12.0
1979-02-28 21:08:30.950 ,5,1,0.,12.0,0.,12.0,0.,12.0,0.,12.0
1979-02-28 21:08:42.950 ,6,1,0.,12.0,0.,12.0,0.,12.0,0.,12.0
1979-02-28 21:08:54.950 ,6,1,0.,12.0,0.,12.0,0.,12.0,0.,12.0
1979-02-28 21:09:06.950 ,7,1,0.,12.0,0.,12.0,0.,12.0,0.,12.0
1979-02-28 21:09:18.950 ,7,1,0.,12.0,0.,12.0,0.,12.0,0.,12.0
1979-02-28 21:09:30.950 ,7,1,0.,12.0,0.,12.0,0.,12.0,0.,12.0
1979-02-28 21:09:42.950 ,7,1,0.,12.0,0.,12.0,0.,12.0,0.,12.0
1979-02-28 21:09:54.950 ,6,1,0.,12.0,0.,12.0,0.,12.0,0.,12.0
1979-02-28 21:10:06.950 ,6,1,0.,12.0,0.,12.0,0.,12.0,0.,12.0
1979-02-28 21:10:18.950 ,5,1,0.,12.0,0.,12.0,0.,12.0,0.,12.0
1979-02-28 21:10:30.950 ,5,1,0.,12.0,0.,12.0,0.,12.0,0.,12.0
1979-02-28 21:10:42.950 ,4,1,0.,12.0,0.,12.0,0.,12.0,0.,12.0
1979-02-28 21:10:54.950 ,4,1,0.,12.0,0.,12.0,0.,12.0,0.,12.0
1979-02-28 21:11:06.950 ,3,1,0.,12.0,0.,12.0,0.,12.0,0.,12.0
1979-02-28 21:11:18.950 ,3,1,0.,12.0,0.,12.0,0.,12.0,0.,12.0
1979-02-28 21:11:30.950 ,2,1,0.,12.0,0.,12.0,0.,12.0,0.,12.0
1979-02-28 21:11:42.950 ,2,1,0.,12.0,0.,12.0,0.,12.0,0.,12.0
1979-02-28 21:11:54.950 ,1,1,0.,12.0,0.,12.0,0.,12.0,0.,12.0
1979-02-28 21:12:06.950 ,1,1,0.,12.0,0.,12.0,0.,12.0,0.,12.0
1979-02-28 21:12:18.950 ,0,1,0.,12.0,0.,12.0,0.,12.0,0.,12.0
1979-02-28 21:12:30.950 ,0,1,0.,12.0,0.,12.0,0.,12.0,0.,12.0
1979-02-28 21:12:42.950 ,0,1,0.,12.0,0.,12.0,0.,12.0,0.,12.0
1979-02-28 21:12:54.950 ,0,1,0.,12.0,0.,12.0,0.,12.0,0.,12.0
1979-02-28 21:13:06.950 ,1,1,0.,12.0,0.,12.0,0.,12.0,0.,12.0
1979-02-28 21:13:18.950 ,1,1,0.,12.0,0.,12.0,0.,12.0,0.,12.0
1979-02-28 21:13:30.950 ,2,1,0.,12.0,0.,12.0,0.,12.0,0.,12.0
1979-02-28 21:13:42.950 ,2,1,0.,12.0,0.,12.0,0.,12.0,0.,12.0
1979-02-28 21:13:54.950 ,3,1,0.,12.0,0.,12.0,0.,12.0,0.,12.0
1979-02-28 21:14:06.950 ,3,1,0.,12.0,0.,12.0,0.,12.0,0.,12.0
1979-02-28 21:14:18.950 ,4,1,0.,12.0,0.,12.0,0.,12.0,0.,12.0
1979-02-28 21:14:30.950 ,4,1,0.,12.0,0.,12.0,0.,12.0,0.,12.0
1979-02-28 21:14:42.950 ,5,1,0.,12.0,0.,12.0,0.,12.0,0.,12.0
1979-02-28 21:14:54.950 ,5,1,0.,12.0,0.,12.0,0.,12.0,0.,12.0
1979-02-28 21:15:06.950 ,6,1,0.,12.0,0.,12.0,0.,12.0,0.,12.0
1979-02-28 21:15:18.950 ,6,1,0.,12.0,0.,12.0,0.,12.0,0.,12.0
1979-02-28 21:15:30.950 ,7,1,0.,12.0,0.,12.0,0.,12.0,0.,12.0
1979-02-28 21:15:42.950 ,7,1,0.,12.0,0.,12.0,0.,12.0,0.,12.0
1979-02-28 21:15:54.950 ,7,1,0.,12.0,0.,12.0,0.,12.0,0.,12.0
1979-02-28 21:16:06.950 ,7,1,0.,12.0,0.,12.0,0.,12.0,0.,12.0
1979-02-28 21:16:18.950 ,6,1,0.,12.0,0.,12.0,0.,12.0,0.,12.0
1979-02-28 21:16:30.950 ,6,1,0.,12.0,0.,12.0,0.,12.0,0.,12.0
1979-02-28 21:16:42.950 ,5,1,0.,12.0,0.,12.0,0.,12.0,0.,12.0
1979-02-28 21:16:54.950 ,5,1,0.,12.0,0.,12.0,0.,12.0,0.,12.0
1979-02-28 21:17:06.950 ,4,1,0.,12.0,0.,12.0,0.,12.0,0.,12.0
1979-02-28 21:17:18.950 ,4,1,0.,12.0,0.,12.0,0.,12.0,0.,12.0
1979-02-28 21:17:30.940 ,3,1,0.,12.0,0.,12.0,0.,12.0,0.,12.0
1979-02-28 21:17:42.940 ,3,1,0.,12.0,0.,12.0,0.,12.0,0.,12.0
1979-02-28 21:17:54.940 ,2,1,0.,12.0,0.,12.0,0.,12.0,0.,12.0
1979-02-28 21:18:06.940 ,2,1,0.,12.0,0.,12.0,0.,12.0,0.,12.0
1979-02-28 21:18:18.940 ,1,1,0.,12.0,0.,12.0,0.,12.0,0.,12.0
1979-02-28 21:18:30.940 ,1,1,0.,12.0,0.,12.0,0.,12.0,0.,12.0
1979-02-28 21:18:42.940 ,0,1,0.,12.0,0.,12.0,0.,12.0,0.,12.0
1979-02-28 21:18:54.940 ,0,1,0.,12.0,0.,12.0,0.,12.0,0.,12.0
1979-02-28 21:19:06.940 ,0,1,0.,12.0,0.,12.0,0.,12.0,0.,12.0
1979-02-28 21:19:18.940 ,0,1,0.,12.0,0.,12.0,0.,12.0,0.,12.0
1979-02-28 21:19:30.940 ,1,1,0.,12.0,0.,12.0,0.,12.0,0.,12.0
1979-02-28 21:19:42.940 ,1,1,0.,12.0,0.,12.0,0.,12.0,0.,12.0
1979-02-28 21:19:54.940 ,2,1,0.,12.0,0.,12.0,0.,12.0,0.,12.0
1979-02-28 21:20:06.940 ,2,1,0.,12.0,0.,12.0,0.,12.0,0.,12.0
1979-02-28 21:20:18.940 ,3,1,0.,12.0,0.,12.0,0.,12.0,0.,12.0
1979-02-28 21:20:30.940 ,3,1,0.,12.0,0.,12.0,0.,12.0,0.,12.0
1979-02-28 21:20:42.940 ,4,1,0.,12.0,0.,12.0,0.,12.0,0.,12.0
1979-02-28 21:20:54.940 ,4,1,0.,12.0,0.,12.0,0.,12.0,0.,12.0
1979-02-28 21:21:06.940 ,5,1,0.,12.0,0.,12.0,0.,12.0,0.,12.0
1979-02-28 21:21:18.940 ,5,1,0.,12.0,0.,12.0,0.,12.0,0.,12.0
1979-02-28 21:21:30.940 ,6,1,0.,12.0,0.,12.0,0.,12.0,0.,12.0
1979-02-28 21:21:42.940 ,6,1,0.,12.0,0.,12.0,0.,12.0,0.,12.0
1979-02-28 21:21:54.940 ,7,1,0.,12.0,0.,12.0,0.,12.0,0.,12.0
1979-02-28 21:22:06.940 ,7,1,0.,12.0,0.,12.0,0.,12.0,0.,12.0
1979-02-28 21:22:18.940 ,7,1,0.,12.0,0.,12.0,0.,12.0,0.,12.0
1979-02-28 21:22:30.940 ,7,1,0.,12.0,0.,12.0,0.,12.0,0.,12.0
1979-02-28 21:22:42.940 ,6,1,0.,12.0,0.,12.0,0.,12.0,0.,12.0
1979-02-28 21:22:54.940 ,6,1,0.,12.0,0.,12.0,0.,12.0,0.,12.0
1979-02-28 21:23:06.940 ,5,1,0.,12.0,0.,12.0,0.,12.0,0.,12.0
1979-02-28 21:23:18.940 ,5,1,0.,12.0,0.,12.0,0.,12.0,0.,12.0
1979-02-28 21:23:30.940 ,4,1,0.,12.0,0.,12.0,0.,12.0,0.,12.0
1979-02-28 21:23:42.940 ,4,1,0.,12.0,0.,12.0,0.,12.0,0.,12.0
1979-02-28 21:23:54.940 ,3,1,0.,12.0,0.,12.0,0.,12.0,0.,12.0
1979-02-28 21:24:06.940 ,3,1,0.,12.0,0.,12.0,0.,12.0,0.,12.0
1979-02-28 21:24:18.940 ,2,1,0.,12.0,0.,12.0,0.,12.0,0.,12.0
1979-02-28 21:24:30.940 ,2,1,0.,12.0,0.,12.0,0.,12.0,0.,12.0
1979-02-28 21:24:42.940 ,1,1,0.,12.0,0.,12.0,0.,12.0,0.,12.0
1979-02-28 21:24:54.940 ,1,1,0.,12.0,0.,12.0,0.,12.0,0.,12.0
1979-02-28 21:25:06.940 ,0,1,0.,12.0,0.,12.0,0.,12.0,0.,12.0
1979-02-28 21:25:18.940 ,0,1,0.,12.0,0.,12.0,0.,12.0,0.,12.0
1979-02-28 21:25:30.940 ,0,1,0.,12.0,0.,12.0,0.,12.0,0.,12.0
1979-02-28 21:25:42.940 ,0,1,0.,12.0,0.,12.0,0.,12.0,0.,12.0
1979-02-28 21:25:54.940 ,1,1,0.,12.0,0.,12.0,0.,12.0,0.,12.0
1979-02-28 21:26:06.940 ,1,1,0.,12.0,0.,12.0,0.,12.0,0.,12.0
1979-02-28 21:26:18.940 ,2,1,0.,12.0,0.,12.0,0.,12.0,0.,12.0
1979-02-28 21:26:30.940 ,2,1,0.,12.0,0.,12.0,0.,12.0,0.,12.0
1979-02-28 21:26:42.940 ,3,1,0.,12.0,0.,12.0,0.,12.0,0.,12.0
1979-02-28 21:26:54.940 ,3,1,0.,12.0,0.,12.0,0.,12.0,0.,12.0
1979-02-28 21:27:06.940 ,4,1,0.,12.0,0.,12.0,0.,12.0,0.,12.0
1979-02-28 21:27:18.940 ,4,1,0.,12.0,0.,12.0,0.,12.0,0.,12.0
1979-02-28 21:27:30.940 ,5,1,0.,12.0,0.,12.0,0.,12.0,0.,12.0
1979-02-28 21:27:42.940 ,5,1,0.,12.0,0.,12.0,0.,12.0,0.,12.0
1979-02-28 21:27:54.940 ,6,1,0.,12.0,0.,12.0,0.,12.0,0.,12.0
1979-02-28 21:28:06.940 ,6,1,0.,12.0,0.,12.0,0.,12.0,0.,12.0
1979-02-28 21:28:18.940 ,7,1,0.,12.0,0.,12.0,0.,12.0,0.,12.0
1979-02-28 21:28:30.940 ,7,1,0.,12.0,0.,12.0,0.,12.0,0.,12.0
1979-02-28 21:28:42.940 ,7,1,0.,12.0,0.,12.0,0.,12.0,0.,12.0
1979-02-28 21:28:54.940 ,7,1,0.,12.0,0.,12.0,0.,12.0,0.,12.0
1979-02-28 21:29:06.940 ,6,1,0.,12.0,0.,12.0,0.,12.0,0.,12.0
1979-02-28 21:29:18.940 ,6,1,0.,12.0,0.,12.0,0.,12.0,0.,12.0
1979-02-28 21:29:30.940 ,5,1,0.,12.0,0.,12.0,0.,12.0,0.,12.0
1979-02-28 21:29:42.940 ,5,1,0.,12.0,0.,12.0,0.,12.0,0.,12.0
1979-02-28 21:29:54.940 ,4,1,0.,12.0,0.,12.0,0.,12.0,0.,12.0
1979-02-28 21:30:06.940 ,4,1,0.,12.0,0.,12.0,0.,12.0,0.,12.0
1979-02-28 21:30:18.940 ,3,1,0.,12.0,0.,12.0,0.,12.0,0.,12.0
1979-02-28 21:30:30.940 ,3,1,0.,12.0,0.,12.0,0.,12.0,0.,12.0
1979-02-28 21:30:42.940 ,2,1,0.,12.0,0.,12.0,0.,12.0,0.,12.0
1979-02-28 21:30:54.940 ,2,1,0.,12.0,0.,12.0,0.,12.0,0.,12.0
1979-02-28 21:31:06.940 ,1,1,0.,12.0,0.,12.0,0.,12.0,0.,12.0
1979-02-28 21:31:18.940 ,1,1,0.,12.0,0.,12.0,0.,12.0,0.,12.0
1979-02-28 21:31:30.940 ,0,1,0.,12.0,0.,12.0,0.,12.0,0.,12.0
1979-02-28 21:31:42.940 ,0,1,0.,12.0,0.,12.0,0.,12.0,0.,12.0
1979-02-28 21:31:54.940 ,0,1,0.,12.0,0.,12.0,0.,12.0,0.,12.0
1979-02-28 21:32:06.940 ,0,1,0.,12.0,0.,12.0,0.,12.0,0.,12.0
1979-02-28 21:32:18.940 ,1,1,0.,12.0,0.,12.0,0.,12.0,0.,12.0
1979-02-28 21:32:30.940 ,1,1,0.,12.0,0.,12.0,0.,12.0,0.,12.0
1979-02-28 21:32:42.940 ,2,1,0.,12.0,0.,12.0,0.,12.0,0.,12.0
1979-02-28 21:32:54.940 ,2,1,0.,12.0,0.,12.0,0.,12.0,0.,12.0
1979-02-28 21:33:06.940 ,3,1,0.,12.0,0.,12.0,0.,12.0,0.,12.0
1979-02-28 21:33:18.940 ,3,1,0.,12.0,0.,12.0,0.,12.0,0.,12.0
1979-02-28 21:33:30.940 ,4,1,0.,12.0,0.,12.0,0.,12.0,0.,12.0
1979-02-28 21:33:42.940 ,4,1,0.,12.0,0.,12.0,0.,12.0,0.,12.0
1979-02-28 21:33:54.940 ,5,1,0.,12.0,0.,12.0,0.,12.0,0.,12.0
1979-02-28 21:34:06.940 ,5,1,0.,12.0,0.,12.0,0.,12.0,0.,12.0
1979-02-28 21:34:18.950 ,6,1,0.,12.0,0.,12.0,0.,12.0,0.,12.0
1979-02-28 21:34:30.950 ,6,1,0.,12.0,0.,12.0,0.,12.0,0.,12.0
1979-02-28 21:34:42.950 ,7,1,0.,12.0,0.,12.0,0.,12.0,0.,12.0
1979-02-28 21:34:54.950 ,7,1,0.,12.0,0.,12.0,0.,12.0,0.,12.0
1979-02-28 21:35:06.950 ,7,1,0.,12.0,0.,12.0,0.,12.0,0.,12.0
1979-02-28 21:35:18.950 ,7,1,0.,12.0,0.,12.0,0.,12.0,0.,12.0
1979-02-28 21:35:30.950 ,6,1,0.,12.0,0.,12.0,0.,12.0,0.,12.0
1979-02-28 21:35:42.950 ,6,1,0.,12.0,0.,12.0,0.,12.0,0.,12.0
1979-02-28 21:35:54.950 ,5,1,0.,12.0,0.,12.0,0.,12.0,0.,12.0
1979-02-28 21:36:06.950 ,5,1,0.,12.0,0.,12.0,0.,12.0,0.,12.0
1979-02-28 21:36:18.950 ,4,1,0.,12.0,0.,12.0,0.,12.0,0.,12.0
1979-02-28 21:36:30.950 ,4,1,0.,12.0,0.,12.0,0.,12.0,0.,12.0
1979-02-28 21:36:42.950 ,3,1,0.,12.0,0.,12.0,0.,12.0,0.,12.0
1979-02-28 21:36:54.950 ,3,1,0.,12.0,0.,12.0,0.,12.0,0.,12.0
1979-02-28 21:37:06.950 ,2,1,0.,12.0,0.,12.0,0.,12.0,0.,12.0
1979-02-28 21:37:18.950 ,2,1,0.,12.0,0.,12.0,0.,12.0,0.,12.0
1979-02-28 21:37:30.950 ,1,1,0.,12.0,0.,12.0,0.,12.0,0.,12.0
1979-02-28 21:37:42.950 ,1,1,0.,12.0,0.,12.0,0.,12.0,0.,12.0
1979-02-28 21:37:54.950 ,0,1,0.,12.0,0.,12.0,0.,12.0,0.,12.0
1979-02-28 21:38:06.950 ,0,1,0.,12.0,0.,12.0,0.,12.0,0.,12.0
1979-02-28 21:38:18.950 ,0,1,0.,12.0,0.,12.0,0.,12.0,0.,12.0
1979-02-28 21:38:30.950 ,0,1,0.,12.0,0.,12.0,0.,12.0,0.,12.0
1979-02-28 21:38:42.950 ,1,1,0.,12.0,0.,12.0,0.,12.0,0.,12.0
1979-02-28 21:38:54.950 ,1,1,0.,12.0,0.,12.0,0.,12.0,0.,12.0
1979-02-28 21:39:06.950 ,2,1,0.,12.0,0.,12.0,0.,12.0,0.,12.0
1979-02-28 21:39:18.950 ,2,1,0.,12.0,0.,12.0,0.,12.0,0.,12.0
1979-02-28 21:39:30.950 ,3,1,0.,12.0,0.,12.0,0.,12.0,0.,12.0
1979-02-28 21:39:42.950 ,3,1,0.,12.0,0.,12.0,0.,12.0,0.,12.0
1979-02-28 21:39:54.950 ,4,1,0.,12.0,0.,12.0,0.,12.0,0.,12.0
1979-02-28 21:40:06.950 ,4,1,0.,12.0,0.,12.0,0.,12.0,0.,12.0
1979-02-28 21:40:18.950 ,5,1,0.,12.0,0.,12.0,0.,12.0,0.,12.0
1979-02-28 21:40:30.950 ,5,1,0.,12.0,0.,12.0,0.,12.0,0.,12.0
1979-02-28 21:40:42.950 ,6,1,0.,12.0,0.,12.0,0.,12.0,0.,12.0
1979-02-28 21:40:54.950 ,6,1,0.,12.0,0.,12.0,0.,12.0,0.,12.0
1979-02-28 21:41:06.950 ,7,1,0.,12.0,0.,12.0,0.,12.0,0.,12.0
1979-02-28 21:41:18.950 ,7,1,0.,12.0,0.,12.0,0.,12.0,0.,12.0
1979-02-28 21:41:30.950 ,7,1,0.,12.0,0.,12.0,0.,12.0,0.,12.0
1979-02-28 21:41:42.950 ,7,1,0.,12.0,0.,12.0,0.,12.0,0.,12.0
1979-02-28 21:41:54.950 ,6,1,0.,12.0,0.,12.0,0.,12.0,0.,12.0
1979-02-28 21:42:06.950 ,6,1,0.,12.0,0.,12.0,0.,12.0,0.,12.0
1979-02-28 21:42:18.950 ,5,1,0.,12.0,0.,12.0,0.,12.0,0.,12.0
1979-02-28 21:42:30.950 ,5,1,0.,12.0,0.,12.0,0.,12.0,0.,12.0
1979-02-28 21:42:42.950 ,4,1,0.,12.0,0.,12.0,0.,12.0,0.,12.0
1979-02-28 21:42:54.950 ,4,1,0.,12.0,0.,12.0,0.,12.0,0.,12.0
1979-02-28 21:43:06.950 ,3,1,0.,12.0,0.,12.0,0.,12.0,0.,12.0
1979-02-28 21:43:18.950 ,3,1,0.,12.0,0.,12.0,0.,12.0,0.,12.0
1979-02-28 21:43:30.950 ,2,1,0.,12.0,0.,12.0,0.,12.0,0.,12.0
1979-02-28 21:43:42.950 ,2,1,0.,12.0,0.,12.0,0.,12.0,0.,12.0
1979-02-28 21:43:54.950 ,1,1,0.,12.0,0.,12.0,0.,12.0,0.,12.0
1979-02-28 21:44:06.950 ,1,1,1.,12.0,0.,12.0,0.,12.0,0.,12.0
1979-02-28 21:44:18.950 ,0,1,0.,12.0,0.,12.0,0.,12.0,0.,12.0
1979-02-28 21:44:30.950 ,0,1,0.,12.0,0.,12.0,0.,12.0,0.,12.0
1979-02-28 21:44:42.950 ,0,1,0.,12.0,0.,12.0,0.,12.0,1.,12.0
1979-02-28 21:44:54.950 ,0,1,0.,12.0,0.,12.0,0.,12.0,0.,12.0
1979-02-28 21:45:06.950 ,1,1,0.,12.0,0.,12.0,0.,12.0,0.,12.0
1979-02-28 21:45:18.950 ,1,1,0.,12.0,0.,12.0,0.,12.0,0.,12.0
1979-02-28 21:45:30.950 ,2,1,0.,12.0,0.,12.0,0.,12.0,0.,12.0
1979-02-28 21:45:42.950 ,2,1,0.,12.0,0.,12.0,0.,12.0,0.,12.0
1979-02-28 21:45:54.950 ,3,1,0.,12.0,0.,12.0,0.,12.0,0.,12.0
1979-02-28 21:46:06.950 ,3,1,0.,12.0,0.,12.0,0.,12.0,0.,12.0
1979-02-28 21:46:18.950 ,4,1,0.,12.0,0.,12.0,0.,12.0,0.,12.0
1979-02-28 21:46:30.950 ,4,1,0.,12.0,0.,12.0,0.,12.0,0.,12.0
1979-02-28 21:46:42.950 ,5,1,0.,12.0,0.,12.0,0.,12.0,0.,12.0
1979-02-28 21:46:54.950 ,5,1,0.,12.0,0.,12.0,0.,12.0,0.,12.0
1979-02-28 21:47:06.950 ,6,1,0.,12.0,0.,12.0,0.,12.0,0.,12.0
1979-02-28 21:47:18.950 ,6,1,0.,12.0,0.,12.0,0.,12.0,0.,12.0
1979-02-28 21:47:30.950 ,7,1,0.,12.0,0.,12.0,0.,12.0,0.,12.0
1979-02-28 21:47:42.950 ,7,1,0.,12.0,0.,12.0,0.,12.0,0.,12.0
1979-02-28 21:47:54.950 ,7,1,0.,12.0,0.,12.0,0.,12.0,0.,12.0
1979-02-28 21:48:06.950 ,7,1,0.,12.0,0.,12.0,0.,12.0,0.,12.0
1979-02-28 21:48:18.950 ,6,1,0.,12.0,0.,12.0,0.,12.0,0.,12.0
1979-02-28 21:48:30.950 ,6,1,0.,12.0,0.,12.0,0.,12.0,0.,12.0
1979-02-28 21:48:42.950 ,5,1,0.,12.0,0.,12.0,0.,12.0,0.,12.0
1979-02-28 21:48:54.950 ,5,1,0.,12.0,0.,12.0,0.,12.0,0.,12.0
1979-02-28 21:49:06.950 ,4,1,0.,12.0,0.,12.0,0.,12.0,0.,12.0
1979-02-28 21:49:18.950 ,4,1,0.,12.0,0.,12.0,0.,12.0,0.,12.0
1979-02-28 21:49:30.950 ,3,1,0.,12.0,0.,12.0,0.,12.0,0.,12.0
1979-02-28 21:49:42.950 ,3,1,0.,12.0,0.,12.0,0.,12.0,0.,12.0
1979-02-28 21:49:54.950 ,2,1,0.,12.0,0.,12.0,0.,12.0,0.,12.0
1979-02-28 21:50:06.950 ,2,1,0.,12.0,0.,12.0,0.,12.0,0.,12.0
1979-02-28 21:50:18.950 ,1,1,0.,12.0,0.,12.0,0.,12.0,0.,12.0
1979-02-28 21:50:30.950 ,1,1,0.,12.0,0.,12.0,0.,12.0,0.,12.0
1979-02-28 21:50:42.950 ,0,1,0.,12.0,0.,12.0,0.,12.0,0.,12.0
1979-02-28 21:50:54.950 ,0,1,0.,12.0,0.,12.0,0.,12.0,0.,12.0
1979-02-28 21:51:06.950 ,0,1,0.,12.0,0.,12.0,0.,12.0,0.,12.0
1979-02-28 21:51:18.950 ,0,1,0.,12.0,0.,12.0,0.,12.0,0.,12.0
1979-02-28 21:51:30.950 ,1,1,0.,12.0,0.,12.0,0.,12.0,0.,12.0
1979-02-28 21:51:42.950 ,1,1,0.,12.0,0.,12.0,0.,12.0,0.,12.0
1979-02-28 21:51:54.950 ,2,1,0.,12.0,0.,12.0,0.,12.0,0.,12.0
1979-02-28 21:52:06.950 ,2,1,0.,12.0,0.,12.0,0.,12.0,0.,12.0
1979-02-28 21:52:18.950 ,3,1,0.,12.0,0.,12.0,0.,12.0,0.,12.0
1979-02-28 21:52:30.950 ,3,1,0.,12.0,0.,12.0,0.,12.0,0.,12.0
1979-02-28 21:52:42.950 ,4,1,0.,12.0,0.,12.0,0.,12.0,0.,12.0
1979-02-28 21:52:54.950 ,4,1,0.,12.0,0.,12.0,0.,12.0,0.,12.0
1979-02-28 21:53:06.950 ,5,1,0.,12.0,0.,12.0,0.,12.0,0.,12.0
1979-02-28 21:53:18.950 ,5,1,0.,12.0,0.,12.0,0.,12.0,0.,12.0
1979-02-28 21:53:30.950 ,6,1,0.,12.0,0.,12.0,0.,12.0,0.,12.0
1979-02-28 21:53:42.950 ,6,1,0.,12.0,0.,12.0,0.,12.0,0.,12.0
1979-02-28 21:53:54.950 ,7,1,0.,12.0,0.,12.0,0.,12.0,0.,12.0
1979-02-28 21:54:06.950 ,7,1,0.,12.0,0.,12.0,0.,12.0,0.,12.0
1979-02-28 21:54:18.950 ,7,1,0.,12.0,0.,12.0,0.,12.0,0.,12.0
1979-02-28 21:54:30.950 ,7,1,0.,12.0,0.,12.0,0.,12.0,0.,12.0
1979-02-28 21:54:42.950 ,6,1,0.,12.0,0.,12.0,0.,12.0,0.,12.0
1979-02-28 21:54:54.950 ,6,1,0.,12.0,0.,12.0,0.,12.0,0.,12.0
1979-02-28 21:55:06.950 ,5,1,0.,12.0,0.,12.0,0.,12.0,0.,12.0
1979-02-28 21:55:18.950 ,5,1,0.,12.0,0.,12.0,0.,12.0,0.,12.0
1979-02-28 21:55:30.950 ,4,1,0.,12.0,0.,12.0,0.,12.0,0.,12.0
1979-02-28 21:55:42.950 ,4,1,0.,12.0,0.,12.0,0.,12.0,0.,12.0
1979-02-28 21:55:54.950 ,3,1,0.,12.0,0.,12.0,0.,12.0,0.,12.0
1979-02-28 21:56:06.950 ,3,1,0.,12.0,0.,12.0,0.,12.0,0.,12.0
1979-02-28 21:56:18.950 ,2,1,0.,12.0,0.,12.0,0.,12.0,0.,12.0
1979-02-28 21:56:30.950 ,2,1,0.,12.0,0.,12.0,0.,12.0,0.,12.0
1979-02-28 21:56:42.950 ,1,1,0.,12.0,0.,12.0,0.,12.0,0.,12.0
1979-02-28 21:56:54.950 ,1,1,0.,12.0,0.,12.0,0.,12.0,0.,12.0
1979-02-28 21:57:06.950 ,0,1,0.,12.0,0.,12.0,0.,12.0,0.,12.0
1979-02-28 21:57:18.950 ,0,1,0.,12.0,0.,12.0,0.,12.0,0.,12.0
1979-02-28 21:57:30.950 ,0,1,0.,12.0,0.,12.0,0.,12.0,0.,12.0
1979-02-28 21:57:42.950 ,0,1,0.,12.0,0.,12.0,0.,12.0,0.,12.0
1979-02-28 21:57:54.950 ,1,1,0.,12.0,0.,12.0,0.,12.0,0.,12.0
1979-02-28 21:58:06.950 ,1,1,1.,12.0,0.,12.0,0.,12.0,0.,12.0
1979-02-28 21:58:18.950 ,2,1,0.,12.0,0.,12.0,0.,12.0,0.,12.0
1979-02-28 21:58:30.950 ,2,1,0.,12.0,0.,12.0,0.,12.0,0.,12.0
1979-02-28 21:58:42.950 ,3,1,0.,12.0,0.,12.0,0.,12.0,0.,12.0
1979-02-28 21:58:54.950 ,3,1,0.,12.0,0.,12.0,0.,12.0,0.,12.0
1979-02-28 21:59:06.950 ,4,1,0.,12.0,0.,12.0,0.,12.0,0.,12.0
1979-02-28 21:59:18.950 ,4,1,0.,12.0,0.,12.0,0.,12.0,0.,12.0
1979-02-28 21:59:30.950 ,5,1,0.,12.0,0.,12.0,0.,12.0,0.,12.0
1979-02-28 21:59:42.950 ,5,1,0.,12.0,0.,12.0,0.,12.0,0.,12.0
1979-02-28 21:59:54.950 ,6,1,0.,12.0,0.,12.0,0.,12.0,0.,12.0
1979-02-28 22:00:06.950 ,6,1,0.,12.0,0.,12.0,0.,12.0,0.,12.0
1979-02-28 22:00:18.950 ,7,1,0.,12.0,0.,12.0,0.,12.0,0.,12.0
1979-02-28 22:00:30.950 ,7,1,0.,12.0,0.,12.0,0.,12.0,0.,12.0
1979-02-28 22:00:42.950 ,7,1,0.,12.0,0.,12.0,0.,12.0,0.,12.0
1979-02-28 22:00:54.950 ,7,1,0.,12.0,0.,12.0,0.,12.0,0.,12.0
1979-02-28 22:01:06.950 ,6,1,0.,12.0,0.,12.0,0.,12.0,0.,12.0
1979-02-28 22:01:18.950 ,6,1,0.,12.0,0.,12.0,0.,12.0,0.,12.0
1979-02-28 22:01:30.950 ,5,1,0.,12.0,0.,12.0,0.,12.0,0.,12.0
1979-02-28 22:01:42.950 ,5,1,0.,12.0,0.,12.0,0.,12.0,0.,12.0
1979-02-28 22:01:54.950 ,4,1,0.,12.0,0.,12.0,0.,12.0,0.,12.0
1979-02-28 22:02:06.950 ,4,1,0.,12.0,0.,12.0,0.,12.0,0.,12.0
1979-02-28 22:02:18.950 ,3,1,0.,12.0,0.,12.0,0.,12.0,0.,12.0
1979-02-28 22:02:30.950 ,3,1,0.,12.0,0.,12.0,0.,12.0,0.,12.0
1979-02-28 22:02:42.950 ,2,1,0.,12.0,0.,12.0,0.,12.0,0.,12.0
1979-02-28 22:02:54.950 ,2,1,0.,12.0,0.,12.0,0.,12.0,0.,12.0
1979-02-28 22:03:06.950 ,1,1,0.,12.0,0.,12.0,0.,12.0,0.,12.0
1979-02-28 22:03:18.950 ,1,1,0.,12.0,0.,12.0,0.,12.0,0.,12.0
1979-02-28 22:03:30.950 ,0,1,0.,12.0,0.,12.0,0.,12.0,0.,12.0
1979-02-28 22:03:42.950 ,0,1,0.,12.0,0.,12.0,0.,12.0,0.,12.0
1979-02-28 22:03:54.950 ,0,1,0.,12.0,0.,12.0,0.,12.0,0.,12.0
1979-02-28 22:04:06.950 ,0,1,0.,12.0,0.,12.0,0.,12.0,0.,12.0
1979-02-28 22:04:18.950 ,1,1,0.,12.0,0.,12.0,0.,12.0,0.,12.0
1979-02-28 22:04:30.950 ,1,1,0.,12.0,0.,12.0,0.,12.0,0.,12.0
1979-02-28 22:04:42.950 ,2,1,0.,12.0,0.,12.0,0.,12.0,0.,12.0
1979-02-28 22:04:54.950 ,2,1,0.,12.0,0.,12.0,0.,12.0,0.,12.0
1979-02-28 22:05:06.950 ,3,1,0.,12.0,0.,12.0,0.,12.0,0.,12.0
1979-02-28 22:05:18.950 ,3,1,0.,12.0,0.,12.0,0.,12.0,0.,12.0
1979-02-28 22:05:30.950 ,4,1,0.,12.0,0.,12.0,0.,12.0,0.,12.0
1979-02-28 22:05:42.950 ,4,1,0.,12.0,0.,12.0,0.,12.0,0.,12.0
1979-02-28 22:05:54.950 ,5,1,0.,12.0,0.,12.0,0.,12.0,0.,12.0
1979-02-28 22:06:06.950 ,5,1,0.,12.0,0.,12.0,0.,12.0,0.,12.0
1979-02-28 22:06:18.950 ,6,1,0.,12.0,0.,12.0,0.,12.0,0.,12.0
1979-02-28 22:06:30.950 ,6,1,0.,12.0,0.,12.0,0.,12.0,0.,12.0
1979-02-28 22:06:42.950 ,7,1,0.,12.0,0.,12.0,0.,12.0,0.,12.0
1979-02-28 22:06:54.950 ,7,1,0.,12.0,0.,12.0,0.,12.0,0.,12.0
1979-02-28 22:07:06.950 ,7,1,0.,12.0,0.,12.0,0.,12.0,0.,12.0
1979-02-28 22:07:18.950 ,7,1,0.,12.0,0.,12.0,0.,12.0,0.,12.0
1979-02-28 22:07:30.950 ,6,1,0.,12.0,0.,12.0,0.,12.0,0.,12.0
1979-02-28 22:07:42.950 ,6,1,0.,12.0,0.,12.0,0.,12.0,0.,12.0
1979-02-28 22:07:54.950 ,5,1,0.,12.0,0.,12.0,0.,12.0,0.,12.0
1979-02-28 22:08:06.950 ,5,1,0.,12.0,0.,12.0,0.,12.0,0.,12.0
1979-02-28 22:08:18.950 ,4,1,0.,12.0,0.,12.0,0.,12.0,0.,12.0
1979-02-28 22:08:30.950 ,4,1,0.,12.0,0.,12.0,0.,12.0,0.,12.0
1979-02-28 22:08:42.950 ,3,1,0.,12.0,0.,12.0,0.,12.0,0.,12.0
1979-02-28 22:08:54.950 ,3,1,0.,12.0,0.,12.0,0.,12.0,0.,12.0
1979-02-28 22:09:06.950 ,2,1,0.,12.0,0.,12.0,0.,12.0,0.,12.0
1979-02-28 22:09:18.950 ,2,1,0.,12.0,0.,12.0,0.,12.0,0.,12.0
1979-02-28 22:09:30.950 ,1,1,0.,12.0,0.,12.0,0.,12.0,0.,12.0
1979-02-28 22:09:42.950 ,1,1,0.,12.0,0.,12.0,0.,12.0,0.,12.0
1979-02-28 22:09:54.950 ,0,1,0.,12.0,0.,12.0,0.,12.0,0.,12.0
1979-02-28 22:10:06.950 ,0,1,0.,12.0,0.,12.0,0.,12.0,0.,12.0
1979-02-28 22:10:18.950 ,0,1,0.,12.0,0.,12.0,0.,12.0,0.,12.0
1979-02-28 22:10:30.950 ,0,1,0.,12.0,0.,12.0,0.,12.0,0.,12.0
1979-02-28 22:10:42.950 ,1,1,0.,12.0,0.,12.0,0.,12.0,0.,12.0
1979-02-28 22:10:54.950 ,1,1,0.,12.0,0.,12.0,0.,12.0,0.,12.0
1979-02-28 22:11:06.950 ,2,1,0.,12.0,0.,12.0,0.,12.0,0.,12.0
1979-02-28 22:11:18.950 ,2,1,0.,12.0,0.,12.0,0.,12.0,0.,12.0
1979-02-28 22:11:30.950 ,3,1,0.,12.0,0.,12.0,0.,12.0,0.,12.0
1979-02-28 22:11:42.950 ,3,1,0.,12.0,0.,12.0,0.,12.0,0.,12.0
1979-02-28 22:11:54.950 ,4,1,0.,12.0,0.,12.0,0.,12.0,0.,12.0
1979-02-28 22:12:06.950 ,4,1,0.,12.0,0.,12.0,0.,12.0,0.,12.0
1979-02-28 22:12:18.950 ,5,1,0.,12.0,0.,12.0,0.,12.0,0.,12.0
1979-02-28 22:12:30.950 ,5,1,0.,12.0,0.,12.0,0.,12.0,0.,12.0
1979-02-28 22:12:42.950 ,6,1,0.,12.0,0.,12.0,0.,12.0,0.,12.0
1979-02-28 22:12:54.950 ,6,1,0.,12.0,0.,12.0,0.,12.0,0.,12.0
1979-02-28 22:13:06.950 ,7,1,0.,12.0,0.,12.0,0.,12.0,0.,12.0
1979-02-28 22:13:18.950 ,7,1,0.,12.0,0.,12.0,0.,12.0,0.,12.0
1979-02-28 22:13:30.950 ,7,1,0.,12.0,0.,12.0,0.,12.0,0.,12.0
1979-02-28 22:13:42.950 ,7,1,0.,12.0,0.,12.0,0.,12.0,0.,12.0
1979-02-28 22:13:54.950 ,6,1,0.,12.0,0.,12.0,0.,12.0,0.,12.0
1979-02-28 22:14:06.950 ,6,1,0.,12.0,0.,12.0,0.,12.0,0.,12.0
1979-02-28 22:14:18.950 ,5,1,0.,12.0,0.,12.0,0.,12.0,0.,12.0
1979-02-28 22:14:30.950 ,5,1,0.,12.0,0.,12.0,0.,12.0,0.,12.0
1979-02-28 22:14:42.950 ,4,1,0.,12.0,0.,12.0,0.,12.0,0.,12.0
1979-02-28 22:14:54.950 ,4,1,0.,12.0,0.,12.0,0.,12.0,0.,12.0
1979-02-28 22:15:06.950 ,3,1,0.,12.0,0.,12.0,0.,12.0,0.,12.0
1979-02-28 22:15:18.950 ,3,1,0.,12.0,0.,12.0,0.,12.0,0.,12.0
1979-02-28 22:15:30.950 ,2,1,0.,12.0,0.,12.0,0.,12.0,0.,12.0
1979-02-28 22:15:42.950 ,2,1,0.,12.0,0.,12.0,0.,12.0,0.,12.0
1979-02-28 22:15:54.950 ,1,1,0.,12.0,0.,12.0,0.,12.0,0.,12.0
1979-02-28 22:16:06.950 ,1,1,0.,12.0,0.,12.0,0.,12.0,0.,12.0
1979-02-28 22:16:18.950 ,0,1,0.,12.0,0.,12.0,0.,12.0,0.,12.0
1979-02-28 22:16:30.950 ,0,1,0.,12.0,0.,12.0,0.,12.0,0.,12.0
1979-02-28 22:16:42.950 ,0,1,0.,12.0,0.,12.0,0.,12.0,0.,12.0
1979-02-28 22:16:54.950 ,0,1,0.,12.0,0.,12.0,0.,12.0,0.,12.0
1979-02-28 22:17:06.950 ,1,1,0.,12.0,0.,12.0,0.,12.0,0.,12.0
1979-02-28 22:17:18.950 ,1,1,0.,12.0,0.,12.0,0.,12.0,0.,12.0